Regional Weather Roundup
Issued by NWS

Home | Current Version | Previous Version | Text Only | Print | Product List | Glossary On
Versions: 1 2 3 4 5 6 7 8 9 10 11 12 13 14 15 16 17 18 19 20 21 22 23 24 25 26 27 28 29 30 31 32 33 34 35 36 37 38 39 40 41 42 43 44 45 46 47 48 49 50
000
ASUS43 KTOP 142359
RWRKS

WEATHER ROUNDUP FOR KANSAS
NATIONAL WEATHER SERVICE GOODLAND KS
600 PM CST THU DEC 14 2017

NOTE:  "FAIR" INDICATES FEW OR NO CLOUDS BELOW 12,000 FEET WITH NO
SIGNIFICANT WEATHER AND/OR OBSTRUCTIONS TO VISIBILITY.

KSZ001>006-013>018-027>032-041>047-150100-
NORTHWEST KANSAS

CITY           SKY/WX    TMP DP  RH WIND       PRES   REMARKS
GOODLAND       CLOUDY    31  28  89 N10       30.20R WCI  22
6HR MIN TEMP:  31; 6HR MAX TEMP:  45; 6HR PCP: TRACE;

HAYS           PTCLDY    39  26  59 N16       30.17R WCI  30
HILL CITY      MOCLDY    37  25  61 N12       30.19R WCI  29
6HR MIN TEMP:  36; 6HR MAX TEMP:  46;

RUSSELL        CLOUDY    39  31  72 N20       30.14R WCI  29
6HR MIN TEMP:  39; 6HR MAX TEMP:  48; 6HR PCP: TRACE;

$$

KSZ061>065-074>080-084>089-150100-
SOUTHWEST KANSAS

CITY           SKY/WX    TMP DP  RH WIND       PRES   REMARKS
DODGE CITY     MOCLDY    40  28  62 N13       30.17R WCI  32
6HR MIN TEMP:  39; 6HR MAX TEMP:  48;

GARDEN CITY    CLEAR     36  28  73 N12       30.19R WCI  28
6HR MIN TEMP:  36; 6HR MAX TEMP:  48;

GREAT BEND     CLEAR     37  30  75 NW8       30.15R
LIBERAL        CLOUDY    41  25  53 NW14      30.21R
$$

KSZ066>073-081>083-090>101-150100-
SOUTHEAST KANSAS

CITY           SKY/WX    TMP DP  RH WIND       PRES   REMARKS
CHANUTE        PTCLDY    34  25  69 CALM      30.10R
6HR MIN TEMP:  34; 6HR MAX TEMP:  47;

COFFEYVILLE    CLOUDY    40  27  59 SE3       30.11R
6HR MIN TEMP:  40; 6HR MAX TEMP:  48;

HUTCHINSON     CLOUDY    44  33  65 NW13      30.12R
6HR MIN TEMP:  44; 6HR MAX TEMP:  51;

MEDICINE LODGE   N/A     46  29  51 NW7       30.13R
NEWTON         CLOUDY    43  30  60 NW12      30.11R
PARSONS        CLOUDY    34  25  69 CALM      30.11S
6HR MIN TEMP:  34; 6HR MAX TEMP:  47;

WICHITA INTL   CLOUDY    48  31  51 NW13      30.11R
6HR MIN TEMP:  46; 6HR MAX TEMP:  51;

WICHITA JABRA  CLOUDY    44  30  57 NW6       30.10R
6HR MIN TEMP:  44; 6HR MAX TEMP:  49;

WICHITA MCCONL CLOUDY    47  29  51 N7        30.10R
WINFIELD       CLOUDY    44  26  49 W5        30.12R
6HR MIN TEMP:  43; 6HR MAX TEMP:  50;

$$

KSZ007>012-019>026-033>040-048>060-102>105-150100-
NORTHEAST KANSAS

CITY           SKY/WX    TMP DP  RH WIND       PRES   REMARKS
CONCORDIA      CLOUDY    39  36  89 N8        30.12R
6HR MIN TEMP:  39; 6HR MAX TEMP:  44; 6HR PCP: TRACE;

EMPORIA        CLOUDY    43  28  55 NW8       30.09R
6HR MIN TEMP:  42; 6HR MAX TEMP:  48;

LAWRENCE       CLOUDY    41  26  55 CALM      30.09R
6HR MIN TEMP:  41; 6HR MAX TEMP:  45;

MANHATTAN      CLOUDY    44  31  60 NW6       30.10R
6HR MIN TEMP:  44; 6HR MAX TEMP:  49;

OLATHE IND     CLOUDY    38  26  62 CALM      30.09R
6HR MIN TEMP:  38; 6HR MAX TEMP:  41;

OLATHE EXE     CLOUDY    37  26  64 CALM      30.09R
6HR MIN TEMP:  37; 6HR MAX TEMP:  40;

SALINA         CLOUDY    44  35  70 N16       30.13R
6HR MIN TEMP:  44; 6HR MAX TEMP:  50;

TOPEKA BILLARD CLOUDY    44  27  51 W5        30.09R
6HR MIN TEMP:  43; 6HR MAX TEMP:  48;

TOPEKA FORBES  CLOUDY    43  27  53 W5        30.08R
6HR MIN TEMP:  43; 6HR MAX TEMP:  48;

$$




USA.gov is the U.S. government's official web portal to all federal, state and local government web resources and services.